This is the latest recevied weather packets stored in our database for station/object KE5VT. If no packets are shown the sender has not sent any weather packets the latest 10 day(s).
| Time | Temp. | Humidity | Pressure | Rain* | Wind** | Luminosity | Snow |
|---|---|---|---|---|---|---|---|
| 1778017023 | 26.11° C | 37% | 1010.1 hPa | 0 mm | - | 100 W/m² | - |
| 1778016721 | 26.11° C | 37% | 1010.3 hPa | 0 mm | - | 284 W/m² | - |
| 1778016416 | 25.56° C | 39% | 1010.2 hPa | 0 mm | - | 108 W/m² | - |
| 1778016114 | 26.11° C | 39% | 1010.3 hPa | 0 mm | - | 61 W/m² | - |
| 1778015811 | 26.67° C | 38% | 1010.3 hPa | 0 mm | - | 100 W/m² | - |
| 1778015508 | 26.11° C | 37% | 1010.2 hPa | 0 mm | - | 439 W/m² | - |
| 1778015204 | 25.56° C | 39% | 1010.3 hPa | 0 mm | - | 205 W/m² | - |
| 1778014901 | 25.56° C | 38% | 1010.6 hPa | 0 mm | - | 306 W/m² | - |
| 1778014599 | 26.11° C | 39% | 1010.4 hPa | 0 mm | - | 91 W/m² | - |
| 1778014297 | 26.11° C | 38% | 1010.4 hPa | 0 mm | - | 272 W/m² | - |
| 1778013993 | 25.56° C | 39% | 1010.6 hPa | 0 mm | - | 229 W/m² | - |
| 1778013692 | 25.56° C | 39% | 1010.7 hPa | 0 mm | - | 226 W/m² | - |
| 1778013388 | 25.56° C | 39% | 1010.6 hPa | 0 mm | - | 103 W/m² | - |
| 1778013085 | 25.56° C | 40% | 1010.7 hPa | 0 mm | - | 129 W/m² | - |
| 1778012780 | 26.11° C | 39% | 1010.7 hPa | 0 mm | - | 390 W/m² | - |
| 1778012477 | 26.67° C | 40% | 1010.6 hPa | 0 mm | - | 158 W/m² | - |
| 1778012173 | 26.11° C | 39% | 1010.8 hPa | 0 mm | - | 208 W/m² | - |
| 1778011871 | 26.11° C | 39% | 1010.8 hPa | 0 mm | - | 234 W/m² | - |
| 1778011569 | 26.11° C | 38% | 1011 hPa | 0 mm | - | 422 W/m² | - |
| 1778011265 | 26.11° C | 39% | 1010.7 hPa | 0 mm | - | 219 W/m² | - |
| 1778010961 | 26.11° C | 39% | 1010.8 hPa | 0 mm | - | 333 W/m² | - |
| 1778010660 | 25.56° C | 38% | 1010.9 hPa | 0 mm | - | 163 W/m² | - |
| 1778010356 | 25.56° C | 40% | 1011 hPa | 0 mm | - | 125 W/m² | - |
| 1778010051 | 25.56° C | 39% | 1011.1 hPa | 0 mm | - | 119 W/m² | - |
| 1778009749 | 26.11° C | 39% | 1011.2 hPa | 0 mm | - | 498 W/m² | - |
* Rain latest hour (hover to see other rain measurements)
** Current wind speed in m/s (hover to see current wind gust speed)